SAS4481 ENVA-ENZV

Flight info

Callsign SAS4481
Flight time 1h 16m
Altitude 38000
Route OSMUM DCT ROPNO
Aircraft A319/M-SDE3FGHIRWY/LB1

Departure

Time 2026-03-24 06:51
Airport Trondheim Airport, Værnes (ENVA)

Arrival

Time 2026-03-24 08:08
Airport Stavanger Airport, Sola (ENZV)
Time Latitude Longitude Altitude Speed Heading
2026-03-24 06:48 63.45597 10.90814 40 ft 21 kts 269°
2026-03-24 06:48 63.45599 10.90497 37 ft 19 kts 270°
2026-03-24 06:48 63.45599 10.90223 35 ft 16 kts 270°
2026-03-24 06:49 63.45600 10.89988 33 ft 14 kts 270°
2026-03-24 06:49 63.45600 10.89780 32 ft 13 kts 270°
2026-03-24 06:49 63.45609 10.89572 30 ft 13 kts 299°
2026-03-24 06:49 63.45659 10.89424 29 ft 11 kts 309°
2026-03-24 06:50 63.45701 10.89310 28 ft 8 kts 310°
2026-03-24 06:50 63.45740 10.89278 27 ft 5 kts 15°
2026-03-24 06:50 63.45760 10.89321 28 ft 4 kts 60°
2026-03-24 06:50 63.45766 10.89473 31 ft 26 kts 90°
2026-03-24 06:51 63.45763 10.90345 34 ft 86 kts 90°
2026-03-24 06:51 63.45759 10.92127 52 ft 143 kts 91°
2026-03-24 06:51 63.45731 10.94441 636 ft 146 kts 95°
2026-03-24 06:51 63.45718 10.96720 1386 ft 150 kts 93°
2026-03-24 06:52 63.45712 10.99195 1815 ft 170 kts 96°
2026-03-24 06:52 63.45700 11.02015 2159 ft 193 kts 97°
2026-03-24 06:52 63.45687 11.05192 2531 ft 216 kts 97°
2026-03-24 06:52 63.45680 11.08637 3293 ft 226 kts 96°
2026-03-24 06:53 63.45674 11.12209 4104 ft 234 kts 95°
2026-03-24 06:53 63.45666 11.15900 4849 ft 241 kts 94°
2026-03-24 06:53 63.45659 11.19702 5642 ft 248 kts 94°
2026-03-24 06:53 63.45650 11.23609 6434 ft 255 kts 94°
2026-03-24 06:54 63.45597 11.27618 7174 ft 261 kts 103°
2026-03-24 06:54 63.44948 11.31338 7878 ft 256 kts 133°
2026-03-24 06:54 63.43647 11.33952 8484 ft 256 kts 160°
2026-03-24 06:54 63.41929 11.34975 8883 ft 259 kts 186°
2026-03-24 06:55 63.40103 11.34865 9542 ft 267 kts 191°
2026-03-24 06:55 63.38226 11.34063 9841 ft 283 kts 205°
2026-03-24 06:55 63.36457 11.32062 10328 ft 288 kts 219°
2026-03-24 06:55 63.34978 11.29055 11062 ft 289 kts 230°
2026-03-24 06:56 63.33623 11.25728 11855 ft 291 kts 230°
2026-03-24 06:56 63.32254 11.22377 12649 ft 294 kts 229°
2026-03-24 06:56 63.30876 11.19008 13409 ft 296 kts 229°
2026-03-24 06:56 63.29485 11.15616 14094 ft 297 kts 229°
2026-03-24 06:57 63.28085 11.12205 14780 ft 299 kts 229°
2026-03-24 06:57 63.26675 11.08769 15434 ft 302 kts 229°
2026-03-24 06:57 63.25249 11.05302 16100 ft 306 kts 228°
2026-03-24 06:57 63.23809 11.01810 16752 ft 309 kts 228°
2026-03-24 06:58 63.22349 10.98275 17397 ft 312 kts 228°
2026-03-24 06:58 63.20889 10.94744 17968 ft 316 kts 228°
2026-03-24 06:58 63.19397 10.91139 18531 ft 319 kts 227°
2026-03-24 06:58 63.17892 10.87505 19117 ft 321 kts 227°
2026-03-24 06:59 63.16372 10.83844 19686 ft 324 kts 227°
2026-03-24 06:59 63.14834 10.80149 20261 ft 327 kts 227°
2026-03-24 06:59 63.13283 10.76431 20807 ft 330 kts 227°
2026-03-24 06:59 63.11717 10.72685 21364 ft 333 kts 227°
2026-03-24 07:00 63.10135 10.68913 21917 ft 336 kts 227°
2026-03-24 07:00 63.08540 10.65112 22500 ft 339 kts 227°
2026-03-24 07:00 63.06932 10.61272 23018 ft 342 kts 227°
2026-03-24 07:00 63.05312 10.57402 23480 ft 345 kts 227°
2026-03-24 07:01 63.03677 10.53513 23868 ft 347 kts 227°
2026-03-24 07:01 63.02025 10.49590 24276 ft 351 kts 228°
2026-03-24 07:01 63.00358 10.45638 24705 ft 354 kts 228°
2026-03-24 07:01 62.98674 10.41660 25134 ft 356 kts 227°
2026-03-24 07:02 62.96973 10.37651 25574 ft 359 kts 228°
2026-03-24 07:02 62.95268 10.33630 26021 ft 362 kts 228°
2026-03-24 07:02 62.93547 10.29575 26458 ft 364 kts 228°
2026-03-24 07:02 62.91808 10.25485 26892 ft 367 kts 228°
2026-03-24 07:03 62.90057 10.21386 27333 ft 369 kts 228°
2026-03-24 07:03 62.88311 10.17312 27747 ft 372 kts 227°
2026-03-24 07:03 62.86526 10.13160 28165 ft 375 kts 227°
2026-03-24 07:03 62.84667 10.09144 28578 ft 379 kts 221°
2026-03-24 07:04 62.82492 10.05811 28981 ft 384 kts 212°
2026-03-24 07:04 62.80079 10.03209 29373 ft 389 kts 208°
2026-03-24 07:04 62.77624 10.00683 29700 ft 391 kts 209°
2026-03-24 07:04 62.75152 9.98137 29935 ft 396 kts 209°
2026-03-24 07:05 62.72652 9.95553 30193 ft 399 kts 209°
2026-03-24 07:05 62.70130 9.92947 30466 ft 402 kts 209°
2026-03-24 07:05 62.67592 9.90331 30751 ft 405 kts 209°
2026-03-24 07:05 62.65039 9.87705 31051 ft 407 kts 209°
2026-03-24 07:06 62.62477 9.85073 31424 ft 407 kts 209°
2026-03-24 07:06 62.59914 9.82451 31822 ft 407 kts 209°
2026-03-24 07:06 62.57348 9.79838 32207 ft 407 kts 209°
2026-03-24 07:06 62.54786 9.77234 32599 ft 407 kts 209°
2026-03-24 07:07 62.52219 9.74634 33020 ft 407 kts 209°
2026-03-24 07:07 62.49683 9.72065 33375 ft 407 kts 209°
2026-03-24 07:07 62.47115 9.69461 33651 ft 408 kts 209°
2026-03-24 07:07 62.44542 9.66856 33954 ft 409 kts 209°
2026-03-24 07:08 62.41961 9.64248 34268 ft 410 kts 209°
2026-03-24 07:08 62.39382 9.61647 34561 ft 410 kts 209°
2026-03-24 07:08 62.36789 9.59042 34825 ft 411 kts 209°
2026-03-24 07:08 62.34193 9.56442 35092 ft 412 kts 209°
2026-03-24 07:09 62.31592 9.53844 35389 ft 412 kts 209°
2026-03-24 07:09 62.28988 9.51246 35654 ft 413 kts 210°
2026-03-24 07:09 62.26382 9.48643 35924 ft 413 kts 210°
2026-03-24 07:09 62.23769 9.46037 36153 ft 415 kts 209°
2026-03-24 07:10 62.21140 9.43425 36363 ft 416 kts 209°
2026-03-24 07:10 62.18519 9.40825 36589 ft 416 kts 209°
2026-03-24 07:10 62.15914 9.38243 36847 ft 416 kts 209°
2026-03-24 07:10 62.13284 9.35642 37104 ft 417 kts 209°
2026-03-24 07:11 62.10650 9.33049 37353 ft 417 kts 209°
2026-03-24 07:11 62.08010 9.30457 37459 ft 418 kts 209°
2026-03-24 07:11 62.02729 9.25290 37468 ft 418 kts 209°
2026-03-24 07:12 61.97447 9.20134 37454 ft 418 kts 209°
2026-03-24 07:12 61.92166 9.14980 37407 ft 418 kts 209°
2026-03-24 07:13 61.86873 9.09830 37460 ft 420 kts 209°
2026-03-24 07:13 61.81555 9.04697 37449 ft 420 kts 209°
2026-03-24 07:14 61.76241 8.99591 37443 ft 420 kts 208°
2026-03-24 07:14 61.70913 8.94500 37456 ft 420 kts 208°
2026-03-24 07:15 61.65592 8.89410 37448 ft 420 kts 208°
2026-03-24 07:15 61.60265 8.84330 37441 ft 422 kts 209°
2026-03-24 07:16 61.54883 8.79223 37452 ft 425 kts 209°
2026-03-24 07:16 61.49502 8.74136 37424 ft 425 kts 208°
2026-03-24 07:17 61.44113 8.69060 37420 ft 425 kts 208°
2026-03-24 07:17 61.38721 8.63992 37441 ft 425 kts 208°
2026-03-24 07:18 61.33318 8.58962 37443 ft 425 kts 208°
2026-03-24 07:18 61.27916 8.53954 37460 ft 425 kts 208°
2026-03-24 07:19 61.22514 8.48945 37457 ft 425 kts 208°
2026-03-24 07:19 61.17108 8.43954 37468 ft 425 kts 208°
2026-03-24 07:20 61.11702 8.38973 37471 ft 425 kts 208°
2026-03-24 07:20 61.06289 8.34023 37429 ft 426 kts 208°
2026-03-24 07:21 61.00846 8.29051 37436 ft 429 kts 207°
2026-03-24 07:21 60.95376 8.24084 37413 ft 431 kts 207°
2026-03-24 07:22 60.89883 8.19098 37420 ft 432 kts 208°
2026-03-24 07:22 60.84407 8.14151 37426 ft 434 kts 207°
2026-03-24 07:23 60.78877 8.09201 37405 ft 434 kts 208°
2026-03-24 07:23 60.73322 8.04235 37100 ft 435 kts 208°
2026-03-24 07:24 60.70543 8.01748 36838 ft 435 kts 208°
2026-03-24 07:24 60.67771 7.99274 36585 ft 434 kts 208°
2026-03-24 07:24 60.65001 7.96810 36339 ft 434 kts 208°
2026-03-24 07:24 60.62234 7.94355 36090 ft 434 kts 208°
2026-03-24 07:25 60.59469 7.91908 35844 ft 433 kts 208°
2026-03-24 07:25 60.56707 7.89466 35602 ft 432 kts 209°
2026-03-24 07:25 60.53952 7.87029 35359 ft 432 kts 209°
2026-03-24 07:25 60.51200 7.84593 35067 ft 431 kts 210°
2026-03-24 07:26 60.48458 7.82173 34830 ft 429 kts 210°
2026-03-24 07:26 60.45725 7.79774 34595 ft 427 kts 210°
2026-03-24 07:26 60.43006 7.77393 34360 ft 424 kts 210°
2026-03-24 07:27 60.37634 7.72703 33832 ft 416 kts 211°
2026-03-24 07:27 60.34986 7.70395 33360 ft 413 kts 211°
2026-03-24 07:27 60.32355 7.68107 32869 ft 409 kts 211°
2026-03-24 07:27 60.29753 7.65854 32440 ft 405 kts 212°
2026-03-24 07:28 60.27179 7.63630 31982 ft 400 kts 212°
2026-03-24 07:28 60.24627 7.61428 31529 ft 396 kts 212°
2026-03-24 07:28 60.22119 7.59266 31077 ft 390 kts 213°
2026-03-24 07:28 60.19636 7.57128 30647 ft 385 kts 213°
2026-03-24 07:29 60.17196 7.55031 30220 ft 380 kts 213°
2026-03-24 07:29 60.14781 7.52952 29797 ft 375 kts 214°
2026-03-24 07:29 60.12393 7.50898 29349 ft 371 kts 214°
2026-03-24 07:29 60.10041 7.48883 28925 ft 364 kts 214°
2026-03-24 07:30 60.07730 7.46906 28544 ft 358 kts 214°
2026-03-24 07:30 60.05460 7.44966 28158 ft 352 kts 214°
2026-03-24 07:30 60.03227 7.43059 27775 ft 346 kts 214°
2026-03-24 07:30 60.01030 7.41187 27405 ft 341 kts 214°
2026-03-24 07:31 59.98866 7.39344 27058 ft 335 kts 214°
2026-03-24 07:31 59.96736 7.37527 26714 ft 331 kts 214°
2026-03-24 07:31 59.94664 7.35764 26380 ft 325 kts 215°
2026-03-24 07:31 59.92595 7.34013 26058 ft 321 kts 215°
2026-03-24 07:32 59.90556 7.32290 25743 ft 316 kts 215°
2026-03-24 07:32 59.88542 7.30590 25421 ft 311 kts 215°
2026-03-24 07:32 59.87206 7.29462 25200 ft 308 kts 215°
2026-03-24 07:32 59.85246 7.27809 24897 ft 304 kts 215°
2026-03-24 07:33 59.83317 7.26188 24584 ft 298 kts 215°
2026-03-24 07:33 59.81426 7.24602 24269 ft 293 kts 216°
2026-03-24 07:33 59.79588 7.23057 23987 ft 289 kts 216°
2026-03-24 07:33 59.77746 7.21501 23647 ft 286 kts 216°
2026-03-24 07:34 59.75929 7.19974 23329 ft 282 kts 216°
2026-03-24 07:34 59.74132 7.18467 23008 ft 278 kts 216°
2026-03-24 07:34 59.72340 7.16967 22661 ft 273 kts 216°
2026-03-24 07:34 59.70623 7.15538 22353 ft 270 kts 215°
2026-03-24 07:35 59.68877 7.14082 21948 ft 268 kts 216°
2026-03-24 07:35 59.67159 7.12646 21704 ft 268 kts 216°
2026-03-24 07:35 59.65440 7.11208 21398 ft 268 kts 216°
2026-03-24 07:35 59.63750 7.09799 21085 ft 267 kts 216°
2026-03-24 07:36 59.62038 7.08372 20781 ft 266 kts 216°
2026-03-24 07:36 59.60340 7.06959 20465 ft 265 kts 215°
2026-03-24 07:36 59.58646 7.05550 20149 ft 264 kts 215°
2026-03-24 07:36 59.56957 7.04148 19828 ft 263 kts 215°
2026-03-24 07:37 59.55271 7.02754 19514 ft 262 kts 215°
2026-03-24 07:37 59.53591 7.01366 19196 ft 261 kts 214°
2026-03-24 07:37 59.51917 6.99984 18893 ft 260 kts 214°
2026-03-24 07:37 59.50248 6.98610 18577 ft 259 kts 214°
2026-03-24 07:38 59.48584 6.97243 18257 ft 259 kts 214°
2026-03-24 07:38 59.46926 6.95882 17949 ft 258 kts 214°
2026-03-24 07:38 59.45273 6.94526 17592 ft 257 kts 213°
2026-03-24 07:38 59.43626 6.93177 17280 ft 256 kts 213°
2026-03-24 07:39 59.41988 6.91833 16964 ft 255 kts 213°
2026-03-24 07:39 59.40355 6.90493 16649 ft 254 kts 213°
2026-03-24 07:39 59.38746 6.89181 16485 ft 246 kts 213°
2026-03-24 07:39 59.37191 6.87927 16346 ft 238 kts 213°
2026-03-24 07:40 59.35674 6.86700 16077 ft 234 kts 214°
2026-03-24 07:40 59.34178 6.85480 15818 ft 232 kts 213°
2026-03-24 07:40 59.32695 6.84268 15554 ft 230 kts 213°
2026-03-24 07:40 59.31173 6.83228 15292 ft 240 kts 200°
2026-03-24 07:41 59.29437 6.83690 15210 ft 274 kts 167°
2026-03-24 07:41 59.27910 6.86290 15218 ft 313 kts 133°
2026-03-24 07:41 59.27166 6.90445 15218 ft 339 kts 99°
2026-03-24 07:41 59.27518 6.95035 15221 ft 347 kts 65°
2026-03-24 07:42 59.28862 6.98872 15223 ft 340 kts 39°
2026-03-24 07:42 59.30602 7.01973 15208 ft 338 kts 33°
2026-03-24 07:42 59.32524 7.04248 15210 ft 316 kts
2026-03-24 07:42 59.34589 7.04434 15209 ft 278 kts 330°
2026-03-24 07:43 59.37474 6.97521 15207 ft 211 kts 260°
2026-03-24 07:43 59.37011 6.94836 15206 ft 211 kts 239°
2026-03-24 07:44 59.36155 6.92484 15206 ft 213 kts 237°
2026-03-24 07:44 59.35256 6.90179 15203 ft 213 kts 236°
2026-03-24 07:44 59.34346 6.87880 15203 ft 213 kts 236°
2026-03-24 07:44 59.33436 6.85586 15205 ft 213 kts 236°
2026-03-24 07:45 59.32432 6.83434 15200 ft 219 kts 222°
2026-03-24 07:45 59.30934 6.82447 15201 ft 246 kts 192°
2026-03-24 07:45 59.29192 6.83501 15218 ft 286 kts 158°
2026-03-24 07:45 59.27832 6.86609 15217 ft 321 kts 124°
2026-03-24 07:46 59.27374 6.90997 15216 ft 342 kts 90°
2026-03-24 07:46 59.28033 6.95472 15218 ft 345 kts 56°
2026-03-24 07:46 59.29596 6.98918 15226 ft 336 kts 32°
2026-03-24 07:46 59.31439 7.01707 15206 ft 330 kts 20°
2026-03-24 07:47 59.33508 7.02932 15206 ft 295 kts 346°
2026-03-24 07:47 59.35339 7.02030 15205 ft 257 kts 314°
2026-03-24 07:47 59.36573 6.99835 15206 ft 232 kts 291°
2026-03-24 07:47 59.37080 6.97020 15207 ft 213 kts 266°
2026-03-24 07:48 59.36764 6.94264 15204 ft 209 kts 242°
2026-03-24 07:48 59.35881 6.91970 15203 ft 212 kts 235°
2026-03-24 07:48 59.34971 6.89680 15204 ft 212 kts 236°
2026-03-24 07:48 59.34077 6.87377 15202 ft 212 kts 237°
2026-03-24 07:49 59.33184 6.85072 15204 ft 212 kts 237°
2026-03-24 07:49 59.32091 6.83080 15202 ft 223 kts 216°
2026-03-24 07:49 59.30494 6.82529 15217 ft 255 kts 184°
2026-03-24 07:49 59.28791 6.84120 15217 ft 295 kts 150°
2026-03-24 07:50 59.27615 6.87638 15218 ft 328 kts 115°
2026-03-24 07:50 59.27429 6.92167 15216 ft 345 kts 81°
2026-03-24 07:50 59.28354 6.96455 15221 ft 343 kts 47°
2026-03-24 07:50 59.30129 6.99318 15204 ft 321 kts 12°
2026-03-24 07:51 59.32190 7.00060 15208 ft 286 kts 338°
2026-03-24 07:51 59.33876 6.98745 15207 ft 245 kts 304°
2026-03-24 07:51 59.34666 6.96129 15203 ft 214 kts 271°
2026-03-24 07:51 59.34613 6.93275 15203 ft 209 kts 255°
2026-03-24 07:52 59.34288 6.90495 15201 ft 210 kts 255°
2026-03-24 07:52 59.33922 6.87731 15199 ft 209 kts 249°
2026-03-24 07:52 59.33218 6.85232 15194 ft 213 kts 239°
2026-03-24 07:52 59.32414 6.82519 14939 ft 244 kts 243°
2026-03-24 07:53 59.31635 6.79485 14685 ft 252 kts 245°
2026-03-24 07:53 59.30870 6.76384 14447 ft 254 kts 245°
2026-03-24 07:53 59.30101 6.73269 14205 ft 252 kts 244°
2026-03-24 07:53 59.29342 6.70217 13898 ft 247 kts 244°
2026-03-24 07:54 59.28590 6.67215 13559 ft 245 kts 244°
2026-03-24 07:54 59.27838 6.64234 13188 ft 243 kts 243°
2026-03-24 07:54 59.27091 6.61287 12822 ft 240 kts 243°
2026-03-24 07:54 59.26351 6.58388 12483 ft 237 kts 243°
2026-03-24 07:55 59.25616 6.55509 12143 ft 236 kts 243°
2026-03-24 07:55 59.24891 6.52672 11808 ft 236 kts 244°
2026-03-24 07:55 59.24157 6.49814 11478 ft 234 kts 243°
2026-03-24 07:55 59.23386 6.47012 11144 ft 235 kts 238°
2026-03-24 07:56 59.22310 6.44594 10796 ft 244 kts 225°
2026-03-24 07:56 59.20912 6.42546 10431 ft 255 kts 220°
2026-03-24 07:56 59.19468 6.40515 10082 ft 255 kts 218°
2026-03-24 07:56 59.18054 6.38541 9831 ft 247 kts 219°
2026-03-24 07:57 59.16672 6.36608 9698 ft 244 kts 219°
2026-03-24 07:57 59.15294 6.34675 9537 ft 245 kts 219°
2026-03-24 07:57 59.13909 6.32737 9313 ft 245 kts 219°
2026-03-24 07:57 59.12519 6.30795 9070 ft 246 kts 219°
2026-03-24 07:58 59.11137 6.28866 8802 ft 244 kts 219°
2026-03-24 07:58 59.09754 6.26928 8566 ft 244 kts 219°
2026-03-24 07:58 59.08508 6.24728 8319 ft 240 kts 233°
2026-03-24 07:58 59.07740 6.21944 8183 ft 231 kts 250°
2026-03-24 07:59 59.07456 6.18909 8050 ft 225 kts 261°
2026-03-24 07:59 59.07293 6.15927 7909 ft 218 kts 261°
2026-03-24 07:59 59.07129 6.13018 7695 ft 216 kts 260°
2026-03-24 07:59 59.06960 6.10126 7510 ft 214 kts 260°
2026-03-24 08:00 59.06793 6.07291 7200 ft 213 kts 260°
2026-03-24 08:00 59.06624 6.04388 6874 ft 213 kts 260°
2026-03-24 08:00 59.06460 6.01579 6427 ft 211 kts 260°
2026-03-24 08:00 59.06293 5.98749 5968 ft 211 kts 261°
2026-03-24 08:01 59.06127 5.95927 5500 ft 209 kts 261°
2026-03-24 08:01 59.05962 5.93134 5038 ft 207 kts 262°
2026-03-24 08:01 59.05798 5.90375 4652 ft 206 kts 262°
2026-03-24 08:01 59.05632 5.87601 4368 ft 206 kts 263°
2026-03-24 08:02 59.05469 5.84861 4195 ft 202 kts 263°
2026-03-24 08:02 59.05308 5.82161 4081 ft 200 kts 263°
2026-03-24 08:02 59.05149 5.79489 3990 ft 199 kts 263°
2026-03-24 08:02 59.04987 5.76814 3905 ft 199 kts 261°
2026-03-24 08:03 59.04600 5.74220 3682 ft 202 kts 250°
2026-03-24 08:03 59.04099 5.71688 3408 ft 200 kts 250°
2026-03-24 08:03 59.03604 5.69179 3139 ft 197 kts 250°
2026-03-24 08:03 59.03122 5.66728 2873 ft 192 kts 250°
2026-03-24 08:04 59.02445 5.64552 2615 ft 190 kts 227°
2026-03-24 08:04 59.01273 5.63437 2394 ft 190 kts 196°
2026-03-24 08:04 58.99965 5.63403 2160 ft 185 kts 188°
2026-03-24 08:04 58.98733 5.63454 1929 ft 171 kts 189°
2026-03-24 08:05 58.97590 5.63493 1697 ft 158 kts 190°
2026-03-24 08:05 58.96555 5.63531 1482 ft 137 kts 191°
2026-03-24 08:05 58.95659 5.63559 1314 ft 123 kts 192°
2026-03-24 08:05 58.94831 5.63580 1136 ft 116 kts 192°
2026-03-24 08:06 58.94028 5.63600 972 ft 115 kts 191°
2026-03-24 08:06 58.93237 5.63622 822 ft 113 kts 187°
2026-03-24 08:06 58.92446 5.63643 665 ft 115 kts 183°
2026-03-24 08:06 58.91643 5.63667 514 ft 114 kts 181°
2026-03-24 08:07 58.90854 5.63678 364 ft 113 kts 174°
2026-03-24 08:07 58.90066 5.63715 239 ft 114 kts 172°
2026-03-24 08:07 58.89276 5.63756 92 ft 113 kts 180°
2026-03-24 08:07 58.88541 5.63760 34 ft 90 kts 179°
2026-03-24 08:08 58.88174 5.63768 38 ft 34 kts 179°
2026-03-24 08:08 58.87918 5.63777 38 ft 38 kts 179°
2026-03-24 08:08 58.87739 5.63780 39 ft 14 kts 179°
2026-03-24 08:08 58.87694 5.63691 41 ft 11 kts 279°
2026-03-24 08:09 58.87712 5.63550 40 ft 10 kts 288°
2026-03-24 08:09 58.87733 5.63431 40 ft 9 kts 288°
2026-03-24 08:09 58.87762 5.63315 38 ft 11 kts 322°
2026-03-24 08:09 58.87848 5.63295 39 ft 15 kts 11°
2026-03-24 08:10 58.87950 5.63369 38 ft 16 kts 11°
2026-03-24 08:10 58.88032 5.63235 37 ft 16 kts 304°
2026-03-24 08:10 58.88103 5.63073 36 ft 15 kts 314°
2026-03-24 08:10 58.88134 5.63011 36 ft 2 kts 313°
2026-03-24 08:11 58.88135 5.63009 36 ft 0 kts 314°